Flag for Congo Dem.Rep. Weather past 2 weeks in Bukavu, Congo Dem.Rep.

Now
61 °F

Fog.


Feels Like: 61 °F
Forecast: 53 / 74 °F
Wind: No wind

Location: Kigali Airport

Current Time: Sep 21, 2014 at 6:54:40 AM

Latest Report: Sep 21, 2014 at 6:30 AM


Visibility: 2 mi

Pressure: 30.12 "Hg

Humidity: 100%

Dew point: 61 °F

Location of BukavuLocation

Historic Weather in Bukavu — Graph

°F

Bukavu temperature yesterday

Maximum temperature yesterday: 77 °F (at 2:00 PM)
Minimum temperature yesterday: 61 °F (at 2:30 AM)
Average temperature yesterday: 66 °F

Past Weeks' High & Low Weather Summary

 TemperatureHumidityPressure
High86 °F (Sep 12, 3:00 PM)100% (Sep 6, 5:00 AM)30.30 "Hg (Sep 6, 5:00 AM)
Low52 °F (Sep 11, 2:00 AM)32% (Sep 12, 5:30 PM)30.01 "Hg (Sep 10, 4:00 PM)
Average70 °F75%30.13 "Hg
* Reported Sep 6 5:00 AM — Sep 21 5:30 AM, Bukavu, Weather by CustomWeather, © 2014

Note: Actual official high and low records may vary slightly from our data, if they occured in-between our weather recording intervals... More about our weather records

Advertising

Bukavu weather history for previous 24 hours

 ConditionsComfort  
Time TempWeatherWind HumidityBarometerVisibility
5:30 AM
Sep 21
59 °FPassing clouds.No wind100%30.09 "Hg4 mi
5:00 AM61 °FPassing clouds.No wind100%30.09 "HgN/A
4:00 AM61 °FPassing clouds.No wind100%30.09 "HgN/A
3:00 AM61 °FPassing clouds.3 mph100%30.09 "HgN/A
2:30 AM61 °FPassing clouds.3 mph100%30.09 "HgN/A
2:00 AM63 °FPassing clouds.3 mph100%30.09 "HgN/A
1:30 AM63 °FPassing clouds.3 mph100%30.09 "HgN/A
1:00 AM63 °FPassing clouds.No wind100%30.12 "HgN/A
12:30 AM63 °FPassing clouds.No wind100%30.12 "HgN/A
12:00 AM63 °FPassing clouds.3 mph100%30.12 "HgN/A
11:30 PM
Sep 20
63 °FPassing clouds.3 mph100%30.15 "HgN/A
10:30 PM64 °FPassing clouds.3 mph100%30.15 "HgN/A
10:00 PM64 °FPassing clouds.3 mph100%30.15 "HgN/A
9:30 PM64 °FPassing clouds.No wind100%30.15 "HgN/A
9:00 PM64 °FPassing clouds.No wind100%30.15 "HgN/A
8:30 PM66 °FPassing clouds.No wind94%30.15 "HgN/A
8:00 PM66 °FPassing clouds.No wind88%30.15 "HgN/A
3:30 PM77 °FScattered clouds.9 mph74%30.09 "HgN/A
3:00 PM77 °FScattered clouds.8 mph65%30.09 "HgN/A
2:30 PM75 °FScattered clouds.7 mph69%30.09 "HgN/A
2:00 PM77 °FScattered clouds.6 mph69%30.09 "HgN/A
1:30 PM75 °FScattered clouds.7 mph74%30.12 "HgN/A
12:30 PM68 °FPartly sunny.7 mph88%30.18 "HgN/A
12:00 PM68 °FPartly sunny.7 mph88%30.18 "HgN/A
11:30 AM64 °FPartly sunny.7 mph100%30.21 "HgN/A
11:00 AM66 °FRain. Partly sunny.7 mph100%30.24 "Hg5 mi
10:30 AM66 °FBroken clouds.7 mph94%30.24 "Hg5 mi
10:00 AM66 °FLight rain. Broken clouds.7 mph94%30.24 "Hg5 mi
9:30 AM66 °FLight rain. Broken clouds.7 mph94%30.21 "Hg5 mi
9:00 AM64 °FLight rain. Broken clouds.No wind100%30.21 "Hg4 mi
8:30 AM64 °FLight rain. Broken clouds.No wind100%30.21 "Hg4 mi
8:00 AM64 °FLight rain. Broken clouds.No wind94%30.18 "Hg4 mi
7:30 AM64 °FBroken clouds.No wind94%30.18 "HgN/A
7:00 AM64 °FBroken clouds.No wind94%30.15 "HgN/A
6:30 AM63 °FBroken clouds.No wind100%30.15 "HgN/A
6:00 AM63 °FBroken clouds.No wind94%30.12 "HgN/A
Weather by CustomWeather, © 2014

See weather overviewHow to use our weather pages